Tracking 18673 objects as of 27-June-2017
HD Live streaming from Space Station
objects crossing your sky now

AMC-4 (GE-4)

Track AMC-4 (GE-4) now!
AMC-4 (GE-4) is classified as:


NORAD ID: 25954
Int'l Code: 1999-060A
Perigee: 35,946.3 km
Apogee: 35,985.2 km
Inclination: 0.0 °
Period: 1,444.9 minutes
Semi major axis: 42336 km
RCS: 18.9697 m2 (large)
Launch date: November 13, 1999
Source: SOCIETE EUROPEENNE DES SATELLITES (SES)
Launch site: FRENCH GUIANA (FRGUI)

Broadcasting, cable, internet; CONUS, Canada, Mexico, Caribbean, Central America, South America; 28 Ku- and 24 C-band
Your satellite tracking list
Your tracking list is empty





NASA's NSSDC Master Catalog

Two Line Element Set (TLE):
1 25954U 99060A   17177.45887362 -.00000170 +00000-0 +00000-0 0  9994
2 25954 000.0273 290.6697 0004591 203.2478 226.1081 00.99661449010855
Source of the keplerian elements: AFSPC